Вернуться в каталог

STARLINK-3579

АктивенСвязьVLEO
NORAD 51893·PAYLOAD·🇺🇸 United States

Запущен Mar 3, 2022 с Cape Canaveral Space Force Station

Loading…

Ближайшие Пролёты (ближайшие 24 часа)

TLE

СвежийSource: CelesTrak SupGP

Эпоха: Sep 14, 2026, 21:19 UTC

1 51893C 22022AT  26257.88868056  .00031179  00000+0  17994-2 0  2574
2 51893  53.2148 228.5545 0001776  52.5679  53.8435 15.11830318    17

Отслеживайте STARLINK-3579 в реальном времени с AllMySat

Download on the App Store